STARLINK-1717

decayed
NORAD ID: 46673 Int'l Des: 2020-073 Owner: SPXS Country: US Constellation: starlink
LEOCIRCULAR
Gruppe

Über STARLINK-1717

Beschreibung wird geladen...

Höhenverlauf

Altitude vs Time

uPlot chart will show altitude changes over time

Zweizeiliger Elementsatz

1 46673U 20073D 24236.44732843 .15570326 11988-4 45833-2 0 9995
2 46673 53.0321 197.7989 0001872 97.8768 2.0094 16.26498225213393
Epoch: 23. Aug. 2024 • Age: 9168 hours

Aktueller Status

Position data unavailable
Startdatum 18. Okt. 2020
Alter 4.8 years
Verglühungsdatum 23. Aug. 2024
Typ internet

Technische Details

Klassifizierung Payload
Masse 260.00 kg
Trockenmasse 248.00 kg
Gesamtmasse 260.00 kg
Länge 0.20 m
Durchmesser 2.80 m
Spannweite 9.00 m
Form Box + pan
Hersteller SPXS
Bus-Typ Starlink
Phasenstatus Unknown Transfer Status
Besitzer/Staat SPXS/US

Große Konstellationen

Loading constellations...